Time,TemperatureF,DewpointF,PressureIn,WindDirection,WindDirectionDegrees,WindSpeedMPH,WindSpeedGustMPH,Humidity,HourlyPrecipIn,Conditions,Clouds,dailyrainin,SolarRadiationWatts/m^2,SoftwareType,DateUTC
2013-01-16 00:00:00,29.8,27.5,29.82,North,9,0.0,1.0,91,0.00,-RA,OVC,0.00,0.0,WeatherDisplay:10.37,2013-01-16 00:00:00,
2013-01-16 00:30:00,29.7,27.4,29.82,North,9,0.0,1.0,91,0.00,-RA,OVC,0.00,0.0,WeatherDisplay:10.37,2013-01-16 00:30:00,
2013-01-16 01:00:00,29.9,27.8,29.82,North,9,0.0,2.0,92,0.00,-RA,OVC,0.00,0.0,WeatherDisplay:10.37,2013-01-16 01:00:00,
2013-01-16 01:30:00,30.1,28.0,29.82,North,9,0.0,3.0,92,0.00,-RA,OVC,0.00,0.0,WeatherDisplay:10.37,2013-01-16 01:30:00,
2013-01-16 02:00:00,29.9,27.9,29.82,North,9,0.0,3.0,92,0.00,-RA,OVC,0.00,0.0,WeatherDisplay:10.37,2013-01-16 02:00:00,
2013-01-16 02:30:00,29.5,27.4,29.81,North,9,0.0,2.0,92,0.00,-RA,OVC,0.00,0.0,WeatherDisplay:10.37,2013-01-16 02:30:00,
2013-01-16 03:00:00,29.2,27.4,29.81,North,9,0.0,2.0,93,0.00,-RA,OVC,0.00,0.0,WeatherDisplay:10.37,2013-01-16 03:00:00,
2013-01-16 03:30:00,29.6,28.1,29.80,North,9,0.0,3.0,94,0.00,-RA,OVC,0.00,0.0,WeatherDisplay:10.37,2013-01-16 03:30:00,
2013-01-16 04:00:00,29.8,28.2,29.81,SSE,150,1.0,5.0,94,0.00,-RA,OVC,0.00,0.0,WeatherDisplay:10.37,2013-01-16 04:00:00,
2013-01-16 04:30:00,29.1,27.3,29.81,SE,126,0.0,7.0,93,0.00,-RA,OVC,0.00,0.0,WeatherDisplay:10.37,2013-01-16 04:30:00,
2013-01-16 05:00:00,28.8,27.3,29.81,ESE,115,0.0,5.0,94,0.00,-RA,OVC,0.00,0.0,WeatherDisplay:10.37,2013-01-16 05:00:00,
2013-01-16 05:30:00,29.1,27.6,29.80,ESE,109,0.0,4.0,94,0.00,-RA,OVC,0.00,0.0,WeatherDisplay:10.37,2013-01-16 05:30:00,
2013-01-16 06:00:00,29.4,27.8,29.80,ESE,109,0.0,3.0,94,0.00,-RA,OVC,0.00,0.0,WeatherDisplay:10.37,2013-01-16 06:00:00,
2013-01-16 06:30:00,29.3,27.5,29.81,ESE,109,0.0,4.0,93,0.00,-RA,OVC,0.00,0.0,WeatherDisplay:10.37,2013-01-16 06:30:00,
2013-01-16 07:00:00,29.3,27.5,29.82,ESE,109,0.0,2.0,93,0.00,-RA,OVC,0.00,0.0,WeatherDisplay:10.37,2013-01-16 07:00:00,
2013-01-16 07:30:00,29.4,27.6,29.83,ENE,78,1.0,5.0,93,0.00,-RA,OVC,0.00,0.0,WeatherDisplay:10.37,2013-01-16 07:30:00,
2013-01-16 08:00:00,29.3,27.5,29.83,NE,49,0.0,4.0,93,0.00,-RA,OVC,0.00,0.0,WeatherDisplay:10.37,2013-01-16 08:00:00,
2013-01-16 08:30:00,29.4,27.6,29.84,NNE,24,0.0,6.0,93,0.00,-RA,OVC,0.00,11.0,WeatherDisplay:10.37,2013-01-16 08:30:00,
2013-01-16 09:00:00,29.4,27.4,29.84,NE,42,0.0,4.0,92,0.00,-RA,OVC,0.00,40.0,WeatherDisplay:10.37,2013-01-16 09:00:00,
2013-01-16 09:30:00,29.6,27.5,29.85,NE,50,1.0,3.0,92,0.00,-RA,OVC,0.00,79.0,WeatherDisplay:10.37,2013-01-16 09:30:00,
2013-01-16 10:00:00,30.1,28.1,29.86,NE,49,0.0,4.0,92,0.00,-RA,OVC,0.00,90.0,WeatherDisplay:10.37,2013-01-16 10:00:00,
2013-01-16 10:30:00,30.1,27.8,29.86,NE,49,0.0,3.0,91,0.00,-RA,OVC,0.00,62.0,WeatherDisplay:10.37,2013-01-16 10:30:00,
2013-01-16 11:00:00,30.5,28.1,29.86,NE,48,0.0,4.0,91,0.00,-RA,OVC,0.00,244.0,WeatherDisplay:10.37,2013-01-16 11:00:00,
2013-01-16 11:30:00,32.8,29.7,29.86,ENE,69,0.0,3.0,88,0.00,-RA,OVC,0.00,258.0,WeatherDisplay:10.37,2013-01-16 11:30:00,
2013-01-16 12:00:00,32.8,29.4,29.86,NNE,31,1.0,5.0,87,0.00,-RA,OVC,0.00,258.0,WeatherDisplay:10.37,2013-01-16 12:00:00,
2013-01-16 12:30:00,32.1,28.7,29.86,NNW,341,1.0,6.0,87,0.00,-RA,OVC,0.00,237.0,WeatherDisplay:10.37,2013-01-16 12:30:00,
2013-01-16 13:00:00,33.0,29.6,29.86,NNE,18,0.0,6.0,87,0.00,-RA,OVC,0.00,120.0,WeatherDisplay:10.37,2013-01-16 13:00:00,
2013-01-16 13:30:00,33.7,30.0,29.87,NNE,32,0.0,6.0,86,0.00,-RA,OVC,0.00,165.0,WeatherDisplay:10.37,2013-01-16 13:30:00,
2013-01-16 14:00:00,33.4,29.3,29.88,NNE,21,1.0,6.0,85,0.00,-RA,OVC,0.00,134.0,WeatherDisplay:10.37,2013-01-16 14:00:00,
2013-01-16 14:30:00,33.1,29.4,29.88,NNE,21,0.0,3.0,86,0.00,-RA,OVC,0.00,81.0,WeatherDisplay:10.37,2013-01-16 14:30:00,
2013-01-16 15:00:00,32.9,29.5,29.90,NNE,21,0.0,4.0,87,0.00,-RA,OVC,0.00,65.0,WeatherDisplay:10.37,2013-01-16 15:00:00,
2013-01-16 15:30:00,32.7,29.5,29.90,NNE,19,0.0,4.0,88,0.00,-RA,OVC,0.00,33.0,WeatherDisplay:10.37,2013-01-16 15:30:00,
2013-01-16 16:00:00,32.3,29.2,29.91,NNE,19,0.0,4.0,88,0.00,-RA,OVC,0.00,14.0,WeatherDisplay:10.37,2013-01-16 16:00:00,
2013-01-16 16:30:00,31.9,28.7,29.91,NNE,19,0.0,3.0,88,0.00,-RA,OVC,0.00,0.0,WeatherDisplay:10.37,2013-01-16 16:30:00,
2013-01-16 17:00:00,31.4,28.2,29.92,NNE,19,0.0,2.0,88,0.00,-RA,OVC,0.00,0.0,WeatherDisplay:10.37,2013-01-16 17:00:00,
2013-01-16 17:30:00,30.6,27.5,29.92,NNE,19,0.0,0.0,88,0.00,-RA,OVC,0.00,0.0,WeatherDisplay:10.37,2013-01-16 17:30:00,
2013-01-16 18:00:00,30.5,27.6,29.94,NNE,19,0.0,0.0,89,0.00,-RA,OVC,0.00,0.0,WeatherDisplay:10.37,2013-01-16 18:00:00,
2013-01-16 18:30:00,30.9,28.3,29.94,NNE,19,0.0,3.0,90,0.00,-RA,OVC,0.00,0.0,WeatherDisplay:10.37,2013-01-16 18:30:00,
2013-01-16 19:00:00,31.0,28.4,29.94,NNE,19,0.0,3.0,90,0.00,-RA,OVC,0.00,0.0,WeatherDisplay:10.37,2013-01-16 19:00:00,
2013-01-16 19:30:00,31.0,28.4,29.95,NNE,19,0.0,3.0,90,0.00,-RA,OVC,0.00,0.0,WeatherDisplay:10.37,2013-01-16 19:30:00,
2013-01-16 20:00:00,30.5,27.9,29.96,NNE,19,0.0,2.0,90,0.00,-RA,OVC,0.00,0.0,WeatherDisplay:10.37,2013-01-16 20:00:00,
2013-01-16 20:30:00,30.0,27.1,29.96,NNE,19,0.0,3.0,89,0.00,-RA,OVC,0.00,0.0,WeatherDisplay:10.37,2013-01-16 20:30:00,
2013-01-16 21:00:00,29.6,26.7,29.96,NNE,19,0.0,2.0,89,0.00,-RA,OVC,0.00,0.0,WeatherDisplay:10.37,2013-01-16 21:00:00,
2013-01-16 21:30:00,29.4,26.8,29.97,NNE,19,0.0,0.0,90,0.00,-RA,OVC,0.00,0.0,WeatherDisplay:10.37,2013-01-16 21:30:00,
2013-01-16 22:00:00,29.3,26.7,29.97,NNE,19,0.0,0.0,90,0.00,-RA,OVC,0.00,0.0,WeatherDisplay:10.37,2013-01-16 22:00:00,
2013-01-16 22:30:00,29.0,25.9,29.97,NNE,19,0.0,0.0,88,0.00,-RA,OVC,0.00,0.0,WeatherDisplay:10.37,2013-01-16 22:30:00,
2013-01-16 23:00:00,28.8,25.7,29.97,NNE,19,0.0,0.0,88,0.00,-RA,OVC,0.00,0.0,WeatherDisplay:10.37,2013-01-16 23:00:00,
2013-01-16 23:30:00,29.3,25.6,29.98,NNE,19,0.0,4.0,86,0.00,-RA,OVC,0.00,0.0,WeatherDisplay:10.37,2013-01-16 23:30:00,